KINEIS-5A

Last updated on Wed Aug 19 2026 00:02:55 GMT+0000 (Coordinated Universal Time)

1 62084U 24219D 26230.67433972 -.00001012 00000+0 -15216-3 0 9995 2 62084 97.9011 28.1484 0005763 104.7936 255.3911 14.72410953 92965
UTC large
Height (km)
Speed (km/s)
/
Latitude / Longitude
Inclination (degrees)
Orbital Period (minutes)
Azimuth
Elevation
Range (km)
Doppler Factor

Next 0 passes for location: London (51.5072 / 0.1276)

No passes found over London.
KINEIS-5A